NIMBUS 2 DEB, 28609

Orbit data source: Space-Track

NIMBUS 2 DEB, 28609 is space debris in SSO originally from a launch on Sun, 15 May 1966 UTC launched from the Air Force Western Test Range (AFWTR). Debris objects in space refer to the collection of defunct objects orbiting the Earth. Examples of debris include non-operational satellites, rocket bodies, and fragments generated from explosions, collisions, or faulty payload assembly.

Loading next visibility...
Identifier
28609, 1966-040Y
Orbit
SSO
Country
Flag of USUS
Related business
Manufacturer
Unknown
Mission
Spacecraft
Bus & Motor
Unknown
Mass
Unknown
Launch date (UTC)
1966-05-15 (60 years ago)
Launch vehicle
Unknown
Launch site
Air Force Western Test Range (AFWTR)
Object type
Payload
Rocket body
Debris
Shape & HBR
Unknown shape, 0.1 m
Radar Cross Section
Small (<0.1 m²)

Expand to show TLE details & history
Last TLE update: 13 hours ago

TLE from 13 hours ago
0 NIMBUS 2 DEB
1 28609U 66040Y   26128.00748097  .00001000  00000-0  16273-2 0  9997
2 28609 100.3408  42.1311 0052741  62.6328 359.2118 13.50234893629768
Epoch: 2026-05-08T00:10Z
TLE epoch observation values (Epoch: 2026-05-08T00:10:46.355Z)
Latitude
60.23938°
Longitude
155.08282°
Altitude
1,042.248 km
Speed
7.356 km/s
True Right ascension
01h 34m 29s
True Declination
60° 05' 48"
Sunlit
Object was in daylight at epoch
Visualization orbit readout
Latitude
Unknown
Longitude
Unknown
Altitude
Unknown
Speed
Unknown
Apparent Right ascension
Unknown
Apparent Declination
Unknown
Sunlit
N/A
Visualization observer readout
Local Sidereal Time
21:25:32
Azimuth
Unknown
Elevation
Unknown
Doppler factor
Unknown
Orbital elements
Apogee altitude
1,108.005 km
Perigee altitude
1,029.454 km
Semi-major axis
7,446.866 km
Eccentricity
0.00527
Inclination
100.3408°
RAAN
42.1311°
Arg. of periapsis
62.6328°
True anomaly
359.20343°
Mean anomaly
359.2118°
Eccentric anomaly
359.20762°
Mean motion
3.3774 °/min
Orbital period
106.59 mins
BSTAR
0.0016273
Loading maneuver chart data...
Computing Atmospheric mass density...
Loading historical data...
Loading historical data...
Loading historical data...
Loading historical data...
Loading historical data...
Loading historical data...
Loading historical data...

Documentation

Showing up to 5 results
|